Wetbulb
56.25 56.70 56.95 57.20 57.50 57.72 57.61 57.73 57.75 57.97 58.50 58.67 58.62 58.74 59.23 59.53 58.80 49.20 43.16 51.23 53.76 64.35 64.16 54.81 53.32 52.92 50.40 45.72 43.65 40.36 35.07 31.63 34.51 39.05 41.05 43.11 43.34 45.87 47.70 46.46 47.47 48.39 48.00 50.20 52.56
56.07 56.39 56.79 57.00 57.44 57.65 57.71 57.66 57.78 57.97 58.35 58.55 58.71 58.80 59.08 59.35 53.67 46.86 56.72 63.31 65.69 65.26 53.05 51.79 50.68 51.01 45.62 44.32 43.54 39.58 35.34 37.04 40.30 40.91 39.05 42.89 42.37 45.63 45.46 45.19 45.53 47.49 49.93 51.26 52.34
56.01 56.38 56.44 56.73 57.24 57.33 57.50 57.49 57.66 58.03 58.25 58.17 58.16 58.72 58.89 57.94 45.87 47.31 63.21 65.38 66.46 63.57 54.46 52.52 51.05 47.14 43.41 42.65 43.22 39.95 37.89 41.16 42.94 43.35 42.57 42.21 42.30 44.99 43.90 43.89 45.78 45.93 48.43 49.99 50.74
55.29 56.00 56.43 56.57 56.93 57.18 57.14 57.41 57.57 57.90 57.67 57.67 58.09 58.74 59.33 52.73 38.93 50.50 66.97 68.24 68.18 57.67 52.40 49.70 48.00 43.40 40.11 39.88 42.39 40.99 43.13 42.87 43.96 45.30 43.51 43.25 44.65 44.11 44.18 46.08 48.54 48.58 49.28 49.21 49.30
55.40 56.20 56.44 56.54 56.88 57.02 57.04 57.12 56.97 57.00 57.15 57.71 58.53 59.26 53.34 47.26 45.85 53.78 66.53 62.37 54.74 54.54 51.11 48.00 45.49 42.85 39.02 40.56 42.50 40.01 42.39 44.49 45.20 44.61 44.35 44.85 43.98 43.38 43.25 47.65 48.65 48.80 49.32 48.42 48.34
55.51 55.79 55.95 56.37 56.77 56.91 56.97 56.65 56.21 56.20 56.95 58.44 59.09 59.43 53.06 43.03 53.09 54.54 52.99 54.66 53.23 50.24 51.13 49.11 47.01 46.58 42.22 40.52 39.98 42.58 42.97 43.99 44.58 44.22 43.40 42.08 42.82 43.30 45.28 46.15 46.76 47.07 46.92 47.14 47.58
55.15 55.05 55.40 55.90 56.45 56.87 56.83 56.16 55.54 56.19 57.47 59.41 59.79 58.10 52.66 47.41 53.31 52.54 52.98 50.57 51.88 52.63 49.55 50.08 49.37 46.84 44.28 42.82 43.19 43.03 41.69 43.21 43.36 42.67 40.99 41.88 41.37 42.18 44.46 45.69 45.62 46.08 46.25 47.11 47.65
54.75 54.71 54.99 55.62 56.13 56.63 56.77 56.49 56.03 56.66 57.99 59.94 60.11 54.24 48.76 56.98 53.57 50.66 50.84 51.98 52.50 51.48 50.19 50.02 49.92 46.55 43.57 43.83 43.90 41.26 37.99 35.34 41.88 42.06 42.87 42.48 35.90 42.16 44.54 44.29 44.50 45.57 45.93 46.65 46.40
54.36 54.44 54.50 55.17 55.82 56.37 56.14 55.82 56.75 57.84 59.41 59.77 51.75 48.35 45.91 57.71 52.04 53.54 51.60 50.04 51.01 51.21 50.64 53.10 48.75 44.41 44.07 38.52 35.83 36.61 33.00 34.28 37.79 40.81 40.59 39.20 37.23 42.48 44.12 43.72 43.40 43.81 44.14 45.20 45.41
53.99 54.03 54.36 54.63 55.36 55.72 54.81 55.32 57.14 56.18 57.98 58.42 55.79 46.50 49.34 50.16 52.46 52.15 52.18 52.48 50.42 49.16 47.99 46.12 41.66 38.87 36.83 35.76 30.30 33.36 31.55 33.69 34.45 39.10 39.67 38.41 38.11 40.20 43.99 43.17 43.18 43.68 44.25 44.92 46.60
53.79 53.67 54.06 54.73 55.21 54.77 51.77 50.52 47.91 47.25 46.57 46.59 48.10 49.66 52.24 54.66 52.80 50.43 52.06 51.17 49.98 46.18 39.89 41.74 38.21 34.28 37.88 39.04 40.11 38.41 34.74 34.59 37.36 41.05 38.16 37.04 38.18 38.41 42.62 42.39 42.41 42.12 45.75 46.63 47.26
52.95 53.23 54.03 54.42 54.79 54.31 48.84 49.66 50.43 50.31 44.91 50.46 49.62 50.90 53.83 54.10 50.00 52.10 52.66 47.36 45.02 40.42 41.27 39.49 35.20 42.00 42.74 42.34 40.14 38.80 35.32 34.54 38.24 41.44 39.16 38.12 38.55 39.96 41.75 42.06 41.74 44.53 46.03 46.36 47.35
52.57 52.97 53.58 54.22 53.96 51.10 49.04 51.12 53.24 49.48 43.24 48.12 50.68 50.01 50.87 52.48 49.16 49.21 50.34 46.56 43.54 40.31 40.36 37.44 41.51 44.90 42.99 40.56 39.32 36.66 34.64 35.09 35.34 38.67 39.07 36.98 36.70 37.98 41.07 42.08 45.35 45.81 46.53 46.76 47.27
52.03 52.53 53.20 53.04 51.16 49.89 50.21 53.07 51.61 50.70 40.54 47.42 47.92 50.04 49.79 47.80 46.38 51.51 50.90 47.98 42.86 41.18 40.56 38.99 43.26 43.18 40.05 39.32 39.35 33.67 39.78 38.92 37.77 33.93 28.30 36.18 28.61 33.32 36.07 39.60 42.73 44.54 45.10 45.82 46.84
51.76 52.30 52.73 52.80 47.81 50.60 53.87 52.55 51.29 52.88 32.09 48.55 46.88 49.97 48.55 44.72 46.29 49.93 52.38 48.76 42.24 42.53 41.52 40.27 40.15 39.70 37.91 39.49 41.11 37.10 40.75 37.92 37.06 31.93 29.37 30.98 25.50 30.95 37.00 37.40 40.43 43.80 47.97 47.31 47.89
51.64 52.04 52.13 51.76 49.66 52.77 53.34 50.35 52.86 41.64 33.33 43.08 46.08 45.07 44.29 46.16 47.32 50.46 49.81 50.13 47.70 42.63 42.32 40.62 45.17 42.27 41.02 43.25 41.99 42.28 36.77 34.89 31.62 28.82 21.65 28.36 28.03 28.13 33.00 38.39 41.02 45.59 46.84 48.89 48.69
51.62 51.50 49.53 52.43 49.36 52.07 51.14 50.23 40.60 34.42 45.28 41.79 41.58 43.18 41.83 43.32 45.33 46.62 44.70 42.06 37.85 34.38 34.38 39.65 40.30 42.57 44.67 38.55 39.42 37.93 30.12 21.08 20.98 19.78 21.65 31.07 29.31 30.98 36.93 42.39 43.67 45.18 46.86 47.69 48.90
50.52 50.53 50.25 53.08 50.13 52.19 49.55 44.71 34.96 41.67 39.81 44.58 43.59 42.30 40.92 43.97 43.27 44.27 41.67 38.18 42.98 39.50 33.16 32.10 31.70 40.39 44.09 38.60 34.91 33.18 31.01 22.28 16.74 18.66 23.52 32.08 26.82 31.87 40.78 43.49 44.88 46.34 46.50 45.29 45.60
49.32 49.49 51.92 53.51 53.43 49.84 46.59 37.03 34.97 39.85 43.82 43.30 42.74 39.27 39.23 42.72 41.90 41.30 39.53 39.11 42.61 41.07 33.27 31.78 33.80 42.62 43.56 42.16 40.19 33.81 26.78 32.92 23.99 26.23 26.55 27.56 32.32 37.27 41.18 42.35 43.84 43.68 43.79 42.01 43.08
46.13 49.96 52.19 53.48 52.31 51.18 44.37 40.63 41.28 46.87 46.80 45.25 37.51 40.84 35.91 38.43 38.96 38.33 37.95 43.33 43.19 45.23 41.73 36.87 30.00 39.53 42.17 41.65 40.22 36.12 37.72 25.76 26.33 20.56 22.70 25.45 27.48 29.43 34.75 37.70 39.91 41.20 40.25 40.40 41.31
49.02 47.77 51.47 51.23 52.62 47.16 39.84 39.97 42.93 48.21 48.15 44.05 40.42 38.97 39.41 38.08 38.69 36.60 38.91 42.98 45.86 44.30 41.89 37.37 31.32 34.15 38.09 35.70 33.57 33.36 30.13 32.38 34.06 33.78 25.16 23.17 25.37 33.64 37.63 40.05 38.03 40.27 40.25 39.74 39.83
44.89 42.95 52.11 50.19 42.88 38.95 38.48 43.49 45.93 46.84 48.08 45.67 43.69 42.56 39.81 39.59 36.93 37.68 38.18 41.45 46.41 43.66 36.98 37.81 32.64 28.44 33.62 39.78 40.22 36.83 33.80 32.75 23.28 25.04 26.96 29.97 29.02 40.74 39.00 39.55 41.19 41.27 41.01 40.39 40.39
42.29 44.14 51.37 47.73 35.47 35.90 40.71 44.44 46.55 45.77 44.80 43.42 42.82 42.97 41.94 37.71 32.13 38.52 40.83 45.84 45.29 42.92 37.00 37.19 28.67 22.06 29.69 32.69 36.12 34.34 35.93 35.26 35.38 33.20 29.95 27.49 28.14 40.09 42.03 42.93 41.55 39.85 39.46 40.29 40.88
41.80 38.43 40.73 41.25 39.79 37.20 37.19 40.03 41.36 46.88 45.40 43.92 42.60 42.05 38.45 36.36 38.46 36.17 38.01 42.88 45.23 43.93 49.29 43.95 32.60 30.33 27.26 30.77 33.11 32.47 35.79 38.23 36.25 30.86 30.32 30.70 32.57 37.51 39.95 39.40 39.68 38.87 39.37 39.79 40.81
39.16 36.83 37.92 32.82 35.59 37.54 37.13 39.05 39.28 38.71 42.80 41.97 39.42 39.74 36.83 32.71 33.97 34.66 38.14 39.59 42.08 45.21 41.12 38.63 31.15 32.34 35.13 36.44 37.07 36.00 35.97 36.81 35.01 35.30 31.99 34.07 34.31 37.98 39.28 37.25 38.08 39.43 39.76 40.37 40.55
37.16 34.69 36.69 35.22 38.11 36.95 36.88 36.18 38.53 39.67 39.31 38.42 37.05 39.13 38.80 34.38 36.04 33.55 36.56 35.47 35.67 37.61 36.25 35.17 30.76 32.66 32.49 36.69 36.94 35.14 37.13 37.79 37.22 37.00 36.46 36.19 34.76 39.55 38.25 38.85 38.63 39.28 39.77 38.45 38.63
39.94 39.81 37.84 36.37 35.97 34.08 34.64 37.15 38.59 39.19 40.96 42.95 39.34 36.59 36.44 39.29 41.72 41.19 41.21 41.41 40.18 35.52 33.48 32.72 31.53 30.22 26.66 35.41 36.16 31.16 35.89 36.83 36.12 36.48 33.26 31.54 36.48 36.04 37.65 37.84 38.26 38.03 37.85 37.57 38.32
MSLP
1017.06 1016.67 1016.41 1016.16 1015.90 1015.69 1015.46 1015.17 1014.88 1014.58 1014.35 1014.02 1013.62 1013.21 1012.73 1012.24 1011.31 1011.23 1011.31 1010.92 1010.81 1010.62 1010.36 1009.72 1009.32 1009.41 1009.64 1010.17 1010.45 1011.16 1012.69 1013.37 1012.33 1011.65 1011.15 1010.37 1010.04 1009.49 1009.10 1008.97 1008.78 1008.45 1008.17 1007.92 1007.82
1017.11 1016.74 1016.44 1016.15 1015.86 1015.62 1015.43 1015.15 1014.83 1014.54 1014.27 1013.96 1013.60 1013.27 1012.85 1012.47 1011.95 1011.31 1010.54 1010.43 1010.65 1010.69 1010.40 1010.40 1010.28 1010.14 1010.48 1010.82 1011.17 1011.82 1012.85 1012.67 1011.86 1011.36 1011.29 1010.85 1010.39 1009.72 1009.51 1009.26 1008.81 1008.50 1008.28 1007.99 1008.04
1017.22 1016.76 1016.43 1016.13 1015.82 1015.53 1015.31 1015.06 1014.73 1014.47 1014.19 1013.91 1013.59 1013.28 1012.96 1012.72 1012.32 1011.35 1010.19 1010.37 1010.57 1010.56 1010.53 1010.63 1010.63 1010.70 1011.38 1011.62 1012.10 1012.13 1012.48 1012.19 1011.61 1011.23 1011.21 1010.82 1010.47 1009.95 1009.68 1009.35 1008.80 1008.81 1008.43 1008.15 1007.94
1017.28 1016.80 1016.39 1016.07 1015.78 1015.52 1015.21 1014.95 1014.66 1014.40 1014.15 1013.88 1013.57 1013.21 1012.79 1012.65 1012.42 1010.93 1010.17 1010.41 1010.52 1010.45 1010.44 1010.59 1010.84 1011.50 1012.39 1012.66 1012.47 1012.31 1012.12 1012.19 1011.78 1011.29 1011.11 1010.86 1010.36 1010.13 1009.91 1009.53 1008.74 1008.63 1008.61 1008.39 1008.20
1017.29 1016.79 1016.35 1016.01 1015.69 1015.42 1015.15 1014.85 1014.60 1014.37 1014.11 1013.82 1013.47 1013.08 1012.75 1012.36 1011.67 1010.31 1010.20 1010.58 1010.43 1010.46 1010.92 1011.01 1011.34 1011.86 1012.47 1012.71 1012.56 1012.56 1012.46 1012.02 1011.53 1011.23 1010.91 1010.67 1010.41 1010.30 1009.89 1009.66 1009.20 1008.93 1008.59 1008.63 1008.65
1017.28 1016.76 1016.30 1015.91 1015.58 1015.29 1015.02 1014.75 1014.52 1014.29 1014.00 1013.72 1013.47 1013.09 1012.87 1012.01 1010.59 1010.28 1010.55 1010.75 1010.79 1010.93 1010.86 1010.88 1011.16 1011.43 1012.08 1012.64 1012.86 1012.66 1012.46 1012.05 1011.46 1011.26 1010.73 1010.49 1010.43 1010.23 1010.00 1009.88 1009.53 1009.31 1009.06 1008.76 1008.71
1017.24 1016.75 1016.24 1015.82 1015.44 1015.08 1014.80 1014.53 1014.31 1014.09 1013.85 1013.64 1013.47 1013.23 1012.76 1011.48 1010.54 1010.47 1010.71 1010.80 1010.82 1010.96 1010.84 1010.66 1010.90 1011.47 1012.01 1012.56 1012.77 1012.87 1012.87 1011.97 1011.64 1011.30 1010.80 1010.60 1010.59 1010.63 1010.34 1010.16 1009.93 1009.67 1009.37 1008.98 1008.58
1017.26 1016.74 1016.21 1015.74 1015.28 1014.87 1014.48 1014.21 1014.00 1013.78 1013.71 1013.60 1013.53 1013.31 1012.40 1010.79 1010.72 1010.78 1010.79 1010.68 1010.37 1010.50 1010.38 1010.44 1010.72 1011.57 1012.26 1012.66 1013.07 1013.53 1013.64 1013.39 1011.99 1011.61 1010.93 1010.97 1010.97 1010.67 1010.28 1010.30 1010.37 1009.94 1009.58 1009.25 1008.75
1017.25 1016.72 1016.24 1015.68 1015.15 1014.61 1014.15 1013.82 1013.53 1013.45 1013.56 1013.62 1013.51 1013.18 1012.11 1010.56 1010.53 1010.14 1010.25 1010.42 1010.39 1010.38 1010.38 1010.56 1011.11 1012.28 1012.95 1013.84 1014.39 1014.66 1014.69 1014.21 1013.20 1011.96 1011.75 1011.70 1011.29 1010.66 1010.50 1010.44 1010.22 1009.93 1009.56 1009.47 1008.87
1017.21 1016.64 1016.17 1015.64 1015.06 1014.42 1013.71 1013.41 1013.20 1013.28 1013.59 1013.60 1013.43 1013.41 1011.74 1010.89 1010.28 1009.92 1009.92 1009.96 1010.46 1010.93 1011.25 1011.66 1012.59 1013.22 1014.21 1014.63 1015.22 1015.01 1014.99 1014.40 1013.79 1012.66 1012.16 1011.86 1011.26 1011.08 1010.55 1010.33 1010.15 1009.75 1009.43 1009.54 1009.18
1017.13 1016.51 1016.04 1015.49 1014.99 1014.49 1013.54 1013.31 1013.75 1013.52 1013.30 1013.12 1012.78 1012.39 1011.34 1010.47 1009.94 1009.94 1009.83 1010.21 1010.73 1011.64 1012.30 1012.72 1013.73 1014.01 1014.10 1014.16 1014.28 1014.42 1014.63 1014.57 1013.98 1012.91 1012.74 1012.34 1011.50 1011.39 1010.97 1010.46 1010.04 1009.96 1009.88 1009.53 1009.15
1017.10 1016.43 1015.83 1015.31 1014.90 1014.54 1014.41 1014.02 1013.44 1013.40 1012.98 1012.01 1011.84 1011.63 1011.04 1010.91 1010.67 1009.77 1009.96 1010.64 1011.30 1012.09 1012.63 1013.38 1013.64 1013.13 1013.33 1013.51 1014.09 1014.26 1014.43 1014.44 1013.81 1013.32 1013.30 1012.34 1011.05 1011.00 1010.76 1010.26 1009.95 1010.26 1010.24 1009.89 1009.24
1016.95 1016.29 1015.67 1015.06 1014.72 1014.56 1014.39 1013.65 1013.01 1013.21 1013.26 1011.85 1011.34 1011.01 1010.49 1010.70 1010.64 1009.83 1010.05 1010.57 1011.32 1012.21 1012.67 1013.37 1012.79 1012.47 1012.98 1013.42 1013.91 1014.32 1014.71 1014.88 1014.77 1014.05 1013.54 1012.95 1010.98 1011.05 1010.54 1010.29 1010.22 1010.41 1010.45 1010.22 1009.81
1016.91 1016.18 1015.55 1014.80 1014.74 1014.70 1013.95 1013.10 1012.95 1013.22 1013.49 1011.94 1010.88 1010.11 1010.02 1010.21 1010.42 1009.83 1009.74 1010.50 1011.38 1011.97 1012.52 1013.04 1012.43 1012.62 1012.81 1013.35 1013.90 1014.46 1014.60 1015.01 1015.26 1015.39 1014.74 1013.77 1011.80 1011.73 1011.41 1010.98 1010.68 1010.55 1010.50 1010.24 1010.04
1016.69 1016.11 1015.56 1015.23 1015.03 1014.47 1013.65 1013.11 1012.77 1013.13 1013.25 1011.75 1010.61 1009.81 1010.29 1010.77 1011.16 1010.81 1010.44 1010.54 1011.23 1011.96 1012.84 1012.66 1012.55 1012.51 1012.90 1013.47 1013.97 1014.58 1014.96 1015.57 1015.62 1015.86 1015.89 1014.95 1014.91 1012.63 1012.03 1011.33 1010.87 1010.39 1010.07 1010.35 1009.98
1016.37 1015.91 1015.53 1015.17 1015.10 1013.88 1013.27 1012.88 1012.98 1013.69 1012.91 1011.90 1011.38 1011.39 1011.70 1011.89 1011.92 1011.98 1011.62 1011.40 1011.84 1012.48 1012.89 1013.14 1012.68 1012.79 1013.14 1013.56 1014.12 1014.82 1015.60 1016.04 1016.99 1017.41 1017.45 1016.23 1015.87 1013.70 1012.47 1011.59 1010.84 1010.32 1009.84 1010.02 1010.29
1015.76 1015.28 1015.31 1014.71 1014.24 1013.61 1013.26 1013.76 1014.31 1013.97 1013.12 1013.19 1012.87 1012.82 1013.24 1013.54 1013.29 1013.33 1013.32 1013.33 1013.82 1014.03 1014.52 1014.16 1013.53 1013.54 1013.61 1014.16 1014.82 1015.63 1017.30 1018.39 1019.00 1019.01 1018.36 1016.92 1016.21 1013.66 1012.00 1011.12 1010.72 1010.19 1009.88 1010.03 1010.27
1015.21 1014.51 1014.60 1013.84 1013.61 1013.65 1014.17 1014.71 1014.69 1014.31 1013.90 1013.66 1013.65 1013.76 1014.26 1014.54 1014.64 1014.58 1014.67 1014.76 1014.61 1014.89 1015.40 1015.38 1014.68 1014.29 1014.16 1014.73 1015.43 1016.45 1017.83 1019.81 1020.42 1020.22 1018.85 1017.51 1015.66 1012.89 1011.41 1010.90 1010.38 1010.15 1010.05 1010.23 1010.42
1015.00 1014.60 1014.51 1013.63 1013.48 1014.05 1014.99 1015.47 1015.32 1014.57 1014.18 1014.16 1014.26 1014.58 1015.08 1015.35 1015.66 1015.52 1015.39 1015.21 1015.08 1015.25 1015.95 1015.95 1015.61 1014.81 1014.62 1014.89 1015.62 1016.58 1017.92 1018.90 1020.06 1019.97 1019.31 1017.05 1014.62 1012.56 1011.36 1011.12 1010.59 1010.32 1010.56 1010.71 1010.87
1016.40 1015.75 1014.90 1013.99 1013.58 1014.66 1015.56 1015.84 1015.23 1014.53 1014.22 1014.37 1014.91 1015.27 1015.81 1016.03 1016.26 1016.26 1015.92 1015.30 1015.31 1015.42 1015.78 1016.42 1016.27 1015.69 1015.27 1015.32 1015.74 1016.39 1017.55 1019.01 1020.11 1020.17 1018.68 1016.45 1014.67 1012.53 1011.58 1011.22 1010.80 1010.67 1010.73 1010.90 1010.83
1016.82 1016.18 1015.02 1014.26 1014.25 1015.58 1016.67 1016.32 1015.45 1014.66 1014.39 1014.54 1015.00 1015.54 1016.04 1016.50 1016.64 1016.76 1016.43 1015.66 1015.55 1015.67 1016.01 1016.73 1017.63 1016.89 1016.35 1015.98 1015.99 1016.81 1017.47 1018.43 1019.15 1019.44 1018.60 1016.68 1013.60 1011.92 1011.27 1010.75 1010.84 1010.69 1010.62 1011.20 1011.07
1017.95 1017.35 1015.31 1014.52 1015.78 1017.38 1017.57 1016.67 1015.70 1015.13 1014.85 1014.62 1015.07 1015.72 1016.27 1016.64 1016.96 1017.02 1016.59 1015.93 1015.65 1015.97 1016.53 1017.04 1017.72 1017.65 1016.55 1015.46 1015.40 1016.10 1016.76 1017.52 1018.62 1018.52 1017.59 1016.08 1012.40 1011.12 1010.69 1010.65 1010.58 1010.60 1010.74 1011.00 1010.91
1019.84 1018.69 1016.08 1015.57 1018.35 1019.21 1018.49 1017.51 1016.54 1015.96 1015.75 1015.65 1015.86 1016.15 1016.48 1017.02 1017.49 1017.15 1016.60 1015.93 1015.86 1016.33 1016.68 1017.31 1018.12 1018.05 1016.70 1016.00 1015.58 1015.70 1016.01 1016.43 1016.84 1017.30 1016.37 1015.31 1012.16 1010.94 1010.51 1010.58 1010.69 1010.98 1011.30 1011.01 1010.56
1020.64 1020.46 1019.42 1019.18 1020.43 1020.33 1020.01 1018.92 1017.75 1016.78 1016.59 1016.60 1016.57 1016.89 1017.39 1017.56 1017.49 1017.30 1016.88 1016.31 1016.11 1016.38 1016.46 1017.13 1018.09 1018.25 1017.60 1016.29 1015.93 1015.59 1015.41 1015.36 1015.84 1015.93 1014.61 1013.77 1011.92 1010.73 1010.84 1010.86 1010.66 1011.08 1011.15 1010.90 1010.33
1021.99 1023.22 1023.13 1022.48 1021.81 1021.58 1020.89 1020.10 1019.24 1018.55 1017.71 1017.63 1017.46 1017.88 1018.34 1018.23 1017.98 1017.62 1017.21 1016.83 1016.32 1016.04 1016.49 1017.18 1017.68 1017.56 1016.65 1015.78 1015.37 1014.81 1014.16 1013.97 1014.35 1013.98 1013.96 1012.42 1011.97 1011.11 1011.19 1011.23 1011.39 1011.56 1011.39 1010.92 1010.08
1023.81 1024.17 1023.75 1023.56 1022.90 1022.19 1021.60 1021.00 1020.37 1019.82 1019.29 1018.58 1018.72 1018.68 1018.46 1018.44 1018.26 1017.95 1017.82 1017.57 1016.95 1016.31 1016.70 1017.40 1017.01 1016.68 1016.10 1015.29 1014.71 1013.99 1013.55 1012.84 1012.63 1012.86 1012.67 1012.33 1011.78 1011.50 1011.58 1011.66 1011.58 1011.45 1010.97 1010.26 1009.42
1024.81 1024.78 1024.63 1024.09 1023.38 1022.87 1022.48 1021.80 1021.13 1020.79 1019.54 1019.17 1019.24 1019.07 1018.56 1018.14 1018.07 1017.79 1017.31 1016.75 1016.38 1017.07 1017.04 1017.43 1017.34 1017.20 1016.16 1015.28 1014.79 1013.80 1012.17 1012.01 1012.19 1012.33 1012.59 1012.37 1011.56 1011.93 1011.74 1011.82 1011.37 1010.86 1010.37 1009.74 1009.12
Wind_Speed
13 12 12 11 11 10 10 10 11 12 12 12 13 13 14 15 12 3 3 4 3 8 9 9 1 7 4 4 2 4 7 1 3 4 6 4 5 2 3 3 2 2 0 2 4
14 13 13 13 12 12 11 11 11 11 12 12 13 13 13 14 4 5 7 6 3 5 5 10 10 10 5 5 4 6 4 6 4 2 3 5 3 7 3 3 4 3 3 3 3
16 14 13 13 13 12 12 11 11 11 11 11 12 12 12 9 5 5 7 5 5 3 1 1 3 2 6 4 6 1 4 4 2 1 2 4 4 3 2 10 8 7 8 7 3
16 15 15 14 13 12 12 11 10 9 9 10 10 11 13 0 5 5 7 3 2 3 3 6 9 6 5 4 4 2 2 3 6 5 6 6 5 4 4 9 9 8 6 6 10
17 16 15 14 14 13 12 10 9 7 7 8 9 10 3 5 2 8 8 8 6 7 5 4 6 3 4 3 4 3 4 8 9 8 6 3 6 3 4 9 10 11 8 8 9
18 17 16 15 14 13 11 9 7 5 5 7 9 10 3 4 4 6 3 6 3 1 5 3 1 1 1 2 1 3 5 8 7 7 4 3 5 3 5 9 10 10 11 9 7
18 18 17 16 15 13 11 9 7 5 5 5 6 3 3 6 1 1 5 3 2 3 2 2 2 2 1 7 1 3 7 9 5 3 4 1 9 7 5 6 9 10 9 10 10
18 17 17 17 16 15 13 11 8 6 4 1 3 0 4 3 2 2 2 5 6 9 3 4 3 3 2 1 8 6 4 5 7 7 3 7 9 5 6 7 9 10 9 10 11
19 18 17 17 16 16 16 13 9 6 4 2 2 4 8 9 2 5 6 3 3 4 4 1 5 2 6 4 6 6 4 5 9 4 4 2 9 7 6 6 10 8 8 9 10
21 19 17 16 16 16 19 7 0 2 4 3 1 3 4 2 4 3 4 6 3 4 7 9 6 4 4 5 4 7 4 5 7 7 6 7 12 3 8 7 9 10 8 7 9
22 20 18 16 14 14 11 3 7 6 2 6 7 4 7 4 2 4 2 3 4 5 2 4 7 2 6 5 8 5 4 7 5 10 3 8 12 4 9 8 10 8 10 11 10
23 22 20 17 14 10 1 4 4 5 8 7 7 6 7 3 6 8 5 5 3 4 1 7 2 8 5 5 2 4 3 5 5 5 5 10 19 7 6 7 7 3 8 9 11
22 21 20 18 16 1 0 3 4 2 3 8 4 4 5 8 7 10 8 4 5 3 5 6 9 3 2 4 6 3 1 5 8 5 6 6 18 6 5 2 4 4 6 7 8
22 21 19 22 2 3 3 4 6 3 5 5 1 2 1 2 4 4 6 8 2 8 4 5 4 0 1 2 2 4 2 5 10 6 6 3 16 3 1 4 3 6 7 8 8
22 19 17 8 1 1 4 7 3 5 4 3 2 0 8 2 3 10 4 3 4 5 5 11 3 2 2 3 2 6 5 6 9 5 3 5 3 7 3 2 5 7 4 6 7
24 19 12 1 1 5 7 4 5 6 1 4 3 7 7 8 6 8 8 7 2 2 2 5 4 3 3 2 4 6 5 6 5 3 2 3 4 7 5 4 5 4 4 5 8
27 19 4 1 2 4 4 5 6 5 4 5 4 5 1 6 5 5 6 7 3 6 5 6 5 2 4 3 3 10 7 6 8 6 6 3 4 11 7 8 6 4 4 4 1
29 14 6 4 1 5 5 6 4 3 2 2 3 4 3 7 3 7 6 6 4 3 1 1 6 4 3 2 3 2 6 6 6 3 6 5 7 8 8 4 6 5 1 3 5
20 4 2 4 4 4 7 6 4 1 2 3 4 4 5 5 3 6 5 2 2 2 2 3 4 4 4 3 4 3 1 3 1 2 4 5 7 9 6 9 7 7 4 5 5
3 4 4 7 4 6 6 1 2 3 1 3 2 1 2 4 5 7 5 3 4 2 3 4 7 4 1 3 2 3 4 1 2 4 5 5 6 9 7 9 9 7 7 6 6
4 5 4 6 5 6 4 1 2 3 4 2 4 3 3 2 1 2 5 7 5 5 2 3 4 5 2 4 8 2 2 1 3 4 3 5 7 6 11 13 7 8 7 6 9
3 4 4 3 6 2 2 5 3 3 4 3 3 1 3 2 3 4 7 7 4 1 3 1 3 5 10 11 4 7 8 6 6 6 6 6 15 12 9 4 5 10 6 7 8
3 3 5 5 5 5 7 6 4 6 4 6 2 2 2 1 4 4 4 6 8 3 4 2 2 5 11 6 2 4 6 6 3 3 10 9 9 4 8 12 9 8 7 8 10
4 5 6 7 1 3 4 5 7 7 1 4 3 5 4 3 5 6 8 7 3 6 17 6 5 9 11 15 4 11 13 14 6 5 10 14 22 24 17 11 10 7 8 10 13
5 1 2 5 4 4 1 5 5 7 5 7 5 4 4 4 4 5 3 5 6 10 2 6 8 8 14 19 15 19 21 18 16 19 12 21 21 20 13 7 6 7 7 13 18
4 4 5 2 4 5 5 4 3 6 3 4 3 7 6 5 7 7 4 4 9 3 4 1 8 4 11 15 15 18 18 22 20 16 15 12 15 4 4 6 8 13 17 20 22
3 3 3 3 4 3 1 3 5 4 6 1 2 5 5 6 5 10 12 16 14 6 3 4 3 1 6 4 8 9 11 12 4 3 5 8 15 3 11 13 17 18 21 23 22
Wind_Direction
5 3 356 352 349 348 348 346 345 345 345 339 333 331 331 336 323 53 31 226 285 328 320 292 101 354 82 22 76 112 61 38 308 29 274 296 353 266 305 3 329 349 175 234 323
4 359 357 352 348 349 349 347 346 343 340 336 332 331 332 341 18 19 250 258 286 319 4 15 351 352 45 10 27 75 95 216 224 270 329 322 326 313 13 310 290 321 254 238 184
0 356 353 349 346 345 345 343 340 340 338 335 331 328 325 328 41 295 277 299 3 328 332 332 314 42 51 12 352 331 137 210 281 314 17 288 291 304 339 320 281 270 289 300 267
2 355 351 347 342 341 340 340 339 341 338 332 326 322 326 339 91 266 293 10 316 247 28 24 25 40 48 25 317 24 10 82 293 333 341 316 292 282 203 251 271 274 266 299 302
360 354 350 344 339 336 338 336 338 341 339 328 327 331 346 33 246 257 288 7 2 13 8 57 42 68 6 336 342 53 321 323 308 317 300 253 323 273 263 309 325 316 319 287 294
357 352 348 344 338 333 328 325 330 330 327 331 335 321 39 56 244 264 18 354 330 354 326 28 7 187 122 3 98 294 284 284 292 296 265 28 307 42 309 343 357 4 344 333 321
354 350 346 342 337 331 323 317 311 296 296 328 345 10 68 224 290 217 143 221 214 213 300 277 160 69 103 333 328 306 327 336 357 349 299 97 332 320 306 344 344 329 313 306 298
351 349 344 340 335 327 320 310 295 264 254 210 349 65 253 258 322 168 129 283 239 233 210 279 155 147 144 251 6 1 47 5 293 332 315 86 276 263 310 340 306 298 299 297 289
350 347 343 338 332 324 315 309 280 248 208 205 13 66 284 313 263 235 173 210 316 323 338 50 76 103 30 60 3 2 259 277 313 284 313 177 262 254 286 284 293 295 293 295 300
347 345 339 336 331 323 318 283 132 197 126 186 312 36 286 322 241 219 218 157 203 1 356 35 36 67 43 68 286 275 265 256 255 282 215 256 260 262 293 310 293 300 319 319 309
345 343 337 333 330 328 344 33 18 353 58 206 227 254 284 271 327 254 224 95 75 57 24 348 49 293 246 209 226 253 228 247 267 261 281 239 269 264 252 292 300 323 331 325 310
343 341 336 329 327 328 336 93 199 204 307 240 247 249 266 68 311 291 122 133 141 242 93 15 266 236 248 277 260 282 285 313 303 355 317 291 284 266 214 231 256 349 328 323 317
341 339 334 329 322 51 308 244 320 85 45 303 196 210 236 138 219 272 149 177 175 199 227 162 245 309 315 3 24 329 124 292 269 302 262 284 279 283 265 346 338 339 288 300 305
340 337 335 328 50 307 290 340 323 149 58 288 8 330 26 181 287 280 215 150 193 206 233 218 287 266 342 131 100 316 283 319 306 327 278 158 289 217 329 319 299 314 325 329 325
339 336 335 346 212 82 297 327 303 62 42 308 9 270 332 98 328 340 350 17 218 227 105 245 280 296 156 217 220 238 330 262 286 253 335 286 1 265 351 317 306 300 315 321 341
335 331 330 141 18 255 318 345 52 48 264 344 32 3 19 359 3 342 7 22 311 352 344 255 280 82 180 275 111 265 341 350 43 85 7 262 101 269 276 233 290 294 67 12 334
331 327 291 341 212 322 343 45 45 111 342 354 337 352 124 342 12 24 349 3 26 5 344 330 312 102 39 4 355 38 42 333 348 2 232 262 319 242 264 253 236 287 38 46 350
329 327 187 226 79 24 45 52 82 55 355 22 334 341 73 17 18 352 7 354 6 91 160 130 317 331 352 151 270 279 148 160 255 232 266 313 241 255 227 273 289 260 88 31 341
323 345 336 307 138 76 68 61 183 242 275 348 329 53 344 14 352 13 329 257 163 51 70 317 261 278 304 148 118 274 164 189 190 251 273 242 283 315 271 289 290 338 358 327 328
26 358 332 326 109 62 72 152 135 336 117 78 95 341 298 310 23 6 327 288 336 176 137 250 288 253 239 22 12 138 181 47 12 287 255 267 265 245 296 279 279 290 287 306 314
29 50 289 347 47 45 107 217 311 355 356 188 212 245 232 279 221 258 259 298 35 305 320 119 137 271 259 215 221 321 314 129 135 218 279 289 257 218 286 294 273 274 249 288 294
34 51 312 20 46 21 41 320 294 342 344 300 112 139 231 273 260 249 231 217 23 102 324 273 182 255 247 258 260 181 203 174 127 264 230 268 274 252 250 258 299 286 297 289 275
52 275 324 64 60 345 321 319 335 348 5 25 54 76 350 265 333 238 259 278 329 19 322 236 299 336 314 353 5 187 193 208 177 159 237 266 272 242 281 296 257 250 272 291 294
56 9 338 35 59 90 353 314 332 342 64 353 326 52 344 260 223 272 285 291 336 295 286 166 198 191 249 260 227 271 261 268 229 238 272 256 279 284 286 280 284 311 318 301 296
26 69 166 324 350 352 317 357 349 359 341 20 2 32 306 279 268 247 279 296 271 265 283 158 232 197 250 260 271 267 277 275 255 255 255 274 277 281 294 292 291 282 285 289 292
66 33 359 297 311 342 4 13 340 328 268 301 24 316 293 245 229 280 263 248 245 297 225 203 275 233 275 267 256 262 267 267 271 271 261 272 280 316 322 297 296 304 306 305 302
334 5 97 290 349 35 215 318 321 6 295 341 314 296 272 266 259 260 247 264 257 281 230 208 220 56 263 331 319 285 253 256 263 270 195 279 283 4 324 313 310 314 310 301 296